User: anonymous   Login
Location: Unspecified
(0.0000°N, 0.0000°E)
Time: 08:48:48
(UTC+00:00)
Language:

TBA - TO BE ASSIGNED - Orbit

View from above orbital plane
View from above orbital plane
View from above satellite
View from above satellite

Ground track
Ground track

The orbit is defined by the following mean orbital elements,

1 68012U          26145.56072297 +.00000000 +00000-0 +60572-3 0 00009
2 68012  43.0019 334.4676 0000804 281.1411  78.9350 15.27592149    06
Epoch (UTC): 25 May 2026 13:27:26
Eccentricity: 0.0000804
inclination: 43.0019°
perigee height: 482 km
apogee height: 484 km
right ascension of ascending node: 334.4676°
argument of perigee: 281.1411°
revolutions per day: 15.27592149
mean anomaly at epoch: 78.9350°

The dashed part of the orbit path shows where the satellite is in the earth's shadow,  

DLR